www.pogodaiklimat.ru

Погода и климат >> Архив погоды >> Алжир >> Багния


ПОГОДА в Багнии

  • Прогноз погоды в Багнии
  • Монитор погоды в Багнии

АРХИВ ПОГОДЫ в Багнии

Время (UTC), дата Ветер
(напр.,м/с)
 
Видим.   Явления Облачность Т
(С)
Тd
(С)
f
(%)
Тe
(С)
Тes
(С)
Комфортность P
(гПа)
Po
(гПа)
Тmin
(С)
Tmax
(С)
R
(мм)
R24
(мм)
S
(см)
09 13.09 штиль 0 8000 м 6/3 800 м
[Cu med, cong Ac trans]
+19.2 +14.5 74 +20 +26 1018.9 969.4
12 13.09 штиль 0 8000 м 5/3 800 м
[Cu med, cong Ac trans]
+25.7 +14.7 51 +28 +41 жарко 1017.5 969.1
15 13.09 СВ 3 8000 м 5/3 800 м
[Cu med, cong Ac trans]
+28.8 +18.0 52 +33 +37 очень
душно
1015.1 967.3
18 13.09 В 3 8000 м 5/3 800 м
[Cu med, cong Ac trans]
+26.9 +17.4 56 +31 +31 душно 1015.8 967.7 +29.0
06 14.09 штиль 0 8000 м 3/3 600 м
[Cu hum]
+16.6 +14.6 88 +16 +16 1016.7 966.9 +16.6
09 14.09 штиль 0 10 км ясно +21.3 +18.3 83 +26 +36 душно 1017.6 968.5
12 14.09 штиль 0 10 км ясно +29.7 +18.2 50 +34 +55 опасность
солнечного
удара
1014.9 967.3
15 14.09 штиль 0 10 км ясно +32.1 +21.0 52 +40 +51 опасность
солнечного
удара
1013.0 965.8
18 14.09 В 1 10 км ясно +25.2 +19.5 71 +31 +31 очень
душно
1015.5 967.1 +32.9
06 15.09 штиль 0 8000 м 3/3 600 м
[Cu hum]
+19.3 +16.4 83 +21 +21 комфорт 1016.2 966.9 +19.1
09 15.09 штиль 0 8000 м 8/3 600 м
[Cu hum Ac und]
+21.8 +18.7 83 +27 +30 душно 1017.7 968.7
12 15.09 штиль 0 10 км 3/3 800 м
[Cu med, cong]
+26.9 +19.1 62 +32 +47 очень
душно
1016.5 968.4
15 15.09 штиль 0 10 км 3/3 800 м
[Cu med, cong]
+31.8 +20.0 50 +38 +46 очень
душно
1014.5 967.2
18 15.09 СВ 3 10 км 1/1 600 м
[Cu Sc As op Cs]
+26.6 +19.9 67 +33 +33 очень
душно
1014.8 966.7 +31.9
06 16.09 штиль 0 8000 м 5/5 600 м
[Cu hum]
+19.8 +17.6 87 +22 +22 комфорт 1017.7 968.4 +18.7
09 16.09 штиль 0 8000 м 5/5 600 м
[Cu hum]
+21.9 +18.6 82 +27 +32 душно 1019.5 970.4
12 16.09 штиль 0 10 км 3/3 800 м
[Cu med, cong]
+27.6 +18.2 57 +32 +47 очень
душно
1017.8 969.7
15 16.09 В 4 10 км ясно +30.4 +18.3 48 +35 +41 очень
душно
1015.7 968.1
18 16.09 штиль 0 10 км ясно +26.4 +18.0 60 +31 +31 душно 1015.9 967.7 +30.7
06 17.09 штиль 0 8000 м 8/8 300 м
[Frnb]
+20.2 +17.7 86 +23 +23 комфорт 1015.5 966.3 +18.2
09 17.09 штиль 0 8000 м 5/5 600 м
[Cu hum]
+22.6 +19.0 80 +28 +33 душно 1015.9 967.1
12 17.09 С 1 10 км 6/6 800 м
[Cu med, cong]
+25.8 +19.5 68 +31 +39 очень
душно
1014.5 966.3
15 17.09 штиль 0 10 км 5/5 800 м
[Cu med, cong]
+27.9 +20.0 62 +34 +39 очень
душно
1012.6 964.8
18 17.09 З 4 10 км 3/3 800 м
[Cu med, cong]
+27.1 +19.5 63 +33 +33 очень
душно
1012.2 964.3 +30.1
06 18.09 штиль 0 7000 м 6/4 300 м
[Frnb Ac trans]
+21.4 +18.1 81 +26 +26 душно 1014.3 965.4 +20.9
09 18.09 штиль 0 7000 м 6/4 300 м
[Frnb Ac trans]
+22.6 +18.9 80 +28 +33 душно 1015.8 967.0
12 18.09 штиль 0 10 км 5/3 800 м
[Cu hum Ac trans]
+27.6 +19.7 62 +33 +45 очень
душно
1014.7 966.8
15 18.09 штиль 0 10 км 5/3 800 м
[Cu hum Ac trans]
+29.1 +20.1 58 +35 +42 очень
душно
1013.1 965.5
18 18.09 штиль 0 10 км 6/3 800 м
[Cu hum Ac trans]
+24.0 +18.6 72 +29 +29 душно 1014.4 965.9 +30.7
06 19.09 штиль 0 7000 м 5/3 300 м
[Frnb Ac trans]
+19.0 +16.1 83 +20 +20 1015.7 966.3 +19.0
09 19.09 штиль 0 10 км 3/3 800 м
[Cu hum]
+23.3 +18.5 74 +29 +36 душно 1016.7 968.0
12 19.09 штиль 0 10 км ясно +29.0 +16.3 46 +32 +52 опасность
солнечного
удара
1014.8 967.1
15 19.09 штиль 0 10 км 3/0
[Ci fib]
+30.9 +18.4 47 +36 +45 очень
душно
1012.9 965.5
18 19.09 В 3 10 км 4/0
[Ci fib]
+26.8 +19.3 63 +32 +32 очень
душно
1019.3 971.0 +31.7

 

Местоположение метеостанции Багния (Алжир): широта 34.82 долгота -1.78 высота над уровнем моря 426 м.

В архиве по умолчанию представлена погода в Багнии за последнюю неделю. Архивные данные за месяц целиком и за предыдущие месяцы, начиная с января 2011 года, Вы можете получить, выбрав интересующий диапазон дат из раскрывающегося списка и нажав кнопку "Ввод!".


*Определитесь, кто Вы:
робот инопланетянин человек

Внимание! Время в таблицах - всемирное. Для получения местного времени необходимо прибавить поправку, которая равна 1 ч.

Смотрите также архив погоды в соседних городах и на ближайших метеорологических станциях:

Погода в Уджде (Марокко) (14 км)
Погода в Газауэте (Алжир) (32 км)
Погода в Аэропорту Messali El Hadj (Алжир) (36 км)
Погода в Бени-Сафе (Алжир) (66 км)
Погода в Сиди-Бель-Аббесе (Алжир) (114 км)
Погода в Аль-Аруи (Марокко) (115 км)
Погода в Мелилье (Испания) (118 км)
Погода в Оран-Тафрауи (Алжир) (136 км)
Погода в Оран аэропорту (Алжир) (140 км)
Погода в Оране (Алжир) (142 км)

Пояснения к столбцам:

Ветер - указаны скорость ветра в м/с - средняя за 10 мин, порывы в срок и между сроками (в фигурных скобках) и направление, откуда дует ветер: С - северный, СВ - северо-восточный, В - восточный, ЮВ - юго-восточный, Ю - южный, ЮЗ - юго-западный, З - западный, СЗ - северо-западный.
Видимость - горизонтальная дальность видимости в метрах или километрах. При видимости от 1 до 10 км при отсутствии осадков обычно наблюдается дымка, при ухудшении видимости до 1 км и менее - туман. В сухую погоду видимость может ухудшаться дымом, пылью или мглою.
Явления - указаны атмосферные явления, наблюдавшиеся в срок или в последний час перед сроком; фигурными скобками обозначены явления, наблюдавшиеся между сроками (за 1-3 часа до срока); квадратными скобками обозначены град или гололедные отложения с указанием их диаметра в мм.
Облачность - указаны через наклонную черту общая и нижняя облачность в баллах и высота нижней границы облаков в метрах; квадратными скобками обозначены формы облаков: Ci - перистые, Cs - перисто-слоистые, Cc - перисто-кучевые, Ac - высококучевые, As - высокослоистые, Sc - слоисто-кучевые, Ns - слоисто-дождевые, Cu - кучевые, Cb - кучево-дождевые. Подробнее классификацию облаков см. в Атласе облаков (PDF).
T - Температура воздуха - температура, измеренная на высоте 2 м над землей.
Td - Температура точки росы - температура, при понижении до которой содержащийся в воздухе водяной пар достигнет насыщения.
f - Относительная влажность воздуха - влажноcть воздуха, измеренная на высоте 2 м над землей.
Te - Эффективная температура - температура, которую ощущает одетый по сезону человек в тени. Характеристика душности погоды. При расчете учитывается влияние влажности воздуха и скорости ветра на теплоощущения человека.
Tes - Эффективная температура на солнце - температура, которую ощущает человек, с поправкой на солнечный нагрев. Характеристика знойности погоды. Зависит от высоты солнца над горизонтом, облачности и скорости ветра. Ночью, в пасмурную погоду, а также при ветре 12 м/с и более поправка равна нулю.
P - Атмосферное давление - приведенное к уровню моря атмосферное давление.
Po - Атмосферное давление - измеренное на уровне метеостанции атмосферное давление.
Tmin - Минимальная температура - минимум температуры воздуха на высоте 2 м над землей.
Tmax - Максимальная температура - максимум температуры воздуха на высоте 2 м над землей.
R - Количество осадков - Количество выпавших осадков за период времени, мм. При наведении курсора мыши на число - период времени, за который выпало указанное количество осадков.
R24 - Количество осадков - Количество выпавших осадков за 24 часа, мм.
S - Снежный покров - Высота снежного покрова, см. При наведении курсора мыши на число - состояние снежного покрова и степень покрытия местности в баллах.